| time (UTC) | temp F | wind direction | speed knots | gust knots | rain 1hr in | rain 24hr in | rain mn in | humidity % | barometer mb |
| 20260504184713 | 69 | 84 | 0.0 | 1.7 | 0.03 | 0.03 | 0.00 | 42 | 1010.7 |
| 20260504184410 | 69 | 85 | 0.0 | 1.7 | 0.03 | 0.03 | 0.00 | 42 | 1010.9 |
| 20260504184107 | 69 | 85 | 0.0 | 2.6 | 0.03 | 0.03 | 0.00 | 42 | 1010.9 |
| 20260504183803 | 70 | 82 | 0.0 | 1.7 | 0.03 | 0.03 | 0.00 | 42 | 1010.9 |
| 20260504183500 | 70 | 81 | 0.0 | 0.9 | 0.03 | 0.03 | 0.00 | 41 | 1010.7 |
| 20260504183157 | 70 | 79 | 0.0 | 0.0 | 0.03 | 0.03 | 0.00 | 42 | 1010.9 |
| 20260504182853 | 70 | 79 | 0.0 | 0.9 | 0.03 | 0.03 | 0.00 | 41 | 1010.7 |
| 20260504182550 | 70 | 78 | 0.0 | 0.9 | 0.03 | 0.03 | 0.00 | 41 | 1010.6 |
| 20260504182247 | 71 | 76 | 0.0 | 0.0 | 0.03 | 0.03 | 0.00 | 40 | 1010.6 |
| 20260504181943 | 71 | 75 | 0.0 | 0.9 | 0.03 | 0.03 | 0.00 | 40 | 1010.6 |
| 20260504181640 | 71 | 71 | 0.9 | 0.9 | 0.03 | 0.03 | 0.00 | 40 | 1010.6 |
| 20260504181337 | 71 | 63 | 0.9 | 1.7 | 0.03 | 0.03 | 0.00 | 40 | 1010.6 |
| 20260504181033 | 71 | 33 | 0.0 | 0.9 | 0.03 | 0.03 | 0.00 | 39 | 1010.6 |
| 20260504180730 | 72 | 338 | 0.0 | 0.9 | 0.03 | 0.03 | 0.00 | 39 | 1010.6 |
| 20260504180427 | 72 | 308 | 0.0 | 0.9 | 0.03 | 0.03 | 0.00 | 39 | 1010.7 |
| 20260504180123 | 73 | 279 | 0.0 | 0.9 | 0.03 | 0.03 | 0.00 | 39 | 1010.4 |
| 20260504175820 | 73 | 265 | 0.0 | 1.7 | 0.03 | 0.03 | 0.00 | 38 | 1010.6 |
| 20260504175516 | 73 | 263 | 0.0 | 1.7 | 0.03 | 0.03 | 0.00 | 37 | 1010.7 |
| 20260504175213 | 73 | 265 | 0.0 | 1.7 | 0.03 | 0.03 | 0.00 | 37 | 1010.7 |
| 20260504174910 | 73 | 262 | 0.0 | 1.7 | 0.03 | 0.03 | 0.00 | 37 | 1010.8 |
| 20260504174606 | 74 | 258 | 0.9 | 1.7 | 0.03 | 0.03 | 0.00 | 37 | 1010.5 |
| 20260504174303 | 74 | 256 | 0.9 | 3.5 | 0.03 | 0.03 | 0.00 | 36 | 1010.5 |
| 20260504174000 | 74 | 258 | 0.0 | 5.2 | 0.03 | 0.03 | 0.00 | 36 | 1010.4 |
| 20260504173656 | 74 | 257 | 0.0 | 5.2 | 0.03 | 0.03 | 0.00 | 36 | 1010.4 |
| 20260504173353 | 74 | 259 | 0.0 | 2.6 | 0.03 | 0.03 | 0.00 | 35 | 1010.3 |
| 20260504173050 | 74 | 259 | 0.9 | 3.5 | 0.03 | 0.03 | 0.00 | 35 | 1010.6 |
| 20260504172746 | 74 | 259 | 1.7 | 2.6 | 0.03 | 0.03 | 0.00 | 35 | 1010.6 |
| 20260504172443 | 75 | 257 | 0.0 | 5.2 | 0.03 | 0.03 | 0.00 | 35 | 1010.4 |
| 20260504172140 | 75 | 257 | 0.0 | 5.2 | 0.03 | 0.03 | 0.00 | 35 | 1010.4 |
| 20260504171836 | 75 | 259 | 1.7 | 4.3 | 0.03 | 0.03 | 0.00 | 35 | 1010.4 |
| 20260504171533 | 75 | 259 | 0.0 | 4.3 | 0.03 | 0.03 | 0.00 | 35 | 1010.7 |
| 20260504171229 | 75 | 258 | 0.0 | 3.5 | 0.03 | 0.03 | 0.00 | 34 | 1010.5 |
| 20260504170926 | 75 | 259 | 1.7 | 4.3 | 0.03 | 0.03 | 0.00 | 34 | 1010.4 |
| 20260504170623 | 76 | 260 | 0.0 | 4.3 | 0.03 | 0.03 | 0.00 | 34 | 1010.4 |
| 20260504170319 | 76 | 262 | 1.7 | 3.5 | 0.03 | 0.03 | 0.00 | 35 | 1010.4 |
| 20260504160212 | 81 | 264 | 1.7 | 7.8 | 0.03 | 0.03 | 0.00 | 29 | 1010.5 |
| 20260504151015 | 82 | 265 | 0.0 | 4.3 | 0.03 | 0.03 | 0.00 | 31 | 1010.9 |
| 20260504150712 | 82 | 265 | 1.7 | 3.5 | 0.03 | 0.03 | 0.00 | 31 | 1010.9 |
| 20260504150408 | 82 | 265 | 2.6 | 3.5 | 0.03 | 0.03 | 0.00 | 32 | 1010.9 |
| 20260504150105 | 82 | 265 | 1.7 | 3.5 | 0.03 | 0.03 | 0.00 | 31 | 1011.1 |
| 20260504141212 | 82 | 265 | 0.0 | 5.2 | 0.03 | 0.03 | 0.00 | 33 | 1011.6 |
| 20260504140908 | 82 | 264 | 4.3 | 5.2 | 0.03 | 0.03 | 0.00 | 32 | 1011.8 |
| 20260504140605 | 82 | 263 | 1.7 | 7.0 | 0.03 | 0.03 | 0.00 | 31 | 1011.6 |
| 20260504140302 | 83 | 263 | 0.0 | 4.3 | 0.03 | 0.03 | 0.00 | 32 | 1011.7 |
| 20260504130801 | 82 | 265 | 0.9 | 4.3 | 0.03 | 0.03 | 0.00 | 32 | 1012.7 |
| 20260504130458 | 81 | 266 | 4.3 | 4.3 | 0.03 | 0.03 | 0.00 | 33 | 1012.5 |
| 20260504130155 | 81 | 266 | 0.0 | 4.3 | 0.03 | 0.03 | 0.00 | 34 | 1012.4 |
| 20260504110547 | 76 | 262 | 4.3 | 7.8 | 0.03 | 0.03 | 0.00 | 39 | 1010.8 |
| 20260504110244 | 77 | 264 | 0.9 | 2.6 | 0.03 | 0.03 | 0.00 | 39 | 1010.9 |
| 20260504100440 | 76 | 266 | 0.0 | 2.6 | 0.03 | 0.03 | 0.00 | 41 | 1011.6 |
| 20260504100137 | 75 | 264 | 0.0 | 2.6 | 0.03 | 0.03 | 0.00 | 40 | 1011.5 |
| 20260504081743 | 67 | 258 | 0.9 | 4.3 | 0.03 | 0.03 | 0.00 | 55 | 1012.2 |
| 20260504081440 | 67 | 261 | 2.6 | 3.5 | 0.03 | 0.03 | 0.00 | 54 | 1012.3 |
| 20260504081137 | 67 | 263 | 2.6 | 3.5 | 0.03 | 0.03 | 0.00 | 56 | 1012.2 |
| 20260504080833 | 66 | 266 | 0.9 | 2.6 | 0.03 | 0.03 | 0.00 | 57 | 1012.3 |
| 20260504080530 | 66 | 265 | 0.0 | 2.6 | 0.03 | 0.03 | 0.00 | 57 | 1012.4 |
| 20260504080226 | 67 | 267 | 1.7 | 1.7 | 0.03 | 0.03 | 0.00 | 56 | 1012.4 |
| 20260504070119 | 62 | 266 | 0.0 | 0.0 | 0.03 | 0.03 | 0.00 | 63 | 1012.4 |
| 20260504050512 | 48 | 266 | 0.0 | 0.9 | 0.03 | 0.03 | 0.00 | 86 | 1012.2 |
| 20260504050208 | 47 | 266 | 0.0 | 0.0 | 0.03 | 0.03 | 0.00 | 87 | 1012.3 |
| 20260504045905 | 46 | 266 | 0.0 | 1.7 | 0.03 | 0.03 | 0.00 | 87 | 1012.4 |
| 20260504045602 | 46 | 266 | 0.9 | 1.7 | 0.03 | 0.03 | 0.00 | 88 | 1012.4 |
| 20260504045258 | 46 | 266 | 0.0 | 1.7 | 0.03 | 0.03 | 0.00 | 88 | 1012.4 |
| 20260504044955 | 46 | 266 | 0.0 | 1.7 | 0.03 | 0.03 | 0.00 | 88 | 1012.1 |
| 20260504044652 | 45 | 266 | 0.9 | 1.7 | 0.03 | 0.03 | 0.00 | 89 | 1012.3 |
| 20260504044348 | 45 | 266 | 0.9 | 1.7 | 0.03 | 0.03 | 0.00 | 89 | 1012.2 |
| 20260504044045 | 45 | 266 | 0.0 | 0.9 | 0.03 | 0.03 | 0.00 | 90 | 1012.0 |
| 20260504043742 | 45 | 266 | 0.0 | 0.9 | 0.03 | 0.03 | 0.00 | 90 | 1012.2 |
| 20260504043438 | 44 | 266 | 0.0 | 0.9 | 0.03 | 0.03 | 0.00 | 90 | 1011.9 |
| 20260504043135 | 44 | 266 | 0.0 | 0.0 | 0.03 | 0.03 | 0.00 | 91 | 1012.1 |
| 20260504042832 | 44 | 266 | 0.0 | 0.0 | 0.03 | 0.03 | 0.00 | 91 | 1012.2 |
| 20260504042528 | 44 | 266 | 0.0 | 0.0 | 0.03 | 0.03 | 0.00 | 91 | 1012.0 |
| 20260504042225 | 44 | 266 | 0.0 | 0.0 | 0.03 | 0.03 | 0.00 | 92 | 1012.0 |
| 20260504041922 | 44 | 266 | 0.0 | 0.0 | 0.03 | 0.03 | 0.00 | 92 | 1012.0 |
| 20260504041618 | 44 | 266 | 0.0 | 0.0 | 0.03 | 0.03 | 0.00 | 92 | 1012.1 |
| 20260504041315 | 43 | 266 | 0.0 | 0.0 | 0.03 | 0.03 | 0.00 | 93 | 1012.1 |
| 20260504041012 | 43 | 266 | 0.0 | 0.0 | 0.03 | 0.03 | 0.00 | 93 | 1012.0 |
| 20260504040708 | 43 | 266 | 0.0 | 0.0 | 0.03 | 0.03 | 0.00 | 93 | 1011.9 |
| 20260504040405 | 42 | 266 | 0.0 | 0.0 | 0.03 | 0.03 | 0.00 | 93 | 1012.1 |
| 20260504035758 | 42 | 266 | 0.0 | 0.0 | 0.03 | 0.03 | 0.00 | 93 | 1012.1 |
| 20260504035455 | 42 | 266 | 0.0 | 0.0 | 0.03 | 0.03 | 0.00 | 93 | 1012.0 |
| 20260504035151 | 43 | 266 | 0.0 | 0.0 | 0.03 | 0.03 | 0.00 | 93 | 1012.1 |
| 20260504034848 | 43 | 266 | 0.0 | 0.0 | 0.03 | 0.03 | 0.00 | 93 | 1012.0 |
| 20260504034545 | 43 | 266 | 0.0 | 0.0 | 0.03 | 0.03 | 0.00 | 93 | 1012.1 |
| 20260504034241 | 42 | 266 | 0.0 | 0.0 | 0.03 | 0.03 | 0.00 | 93 | 1012.2 |
| 20260504033938 | 43 | 266 | 0.0 | 0.0 | 0.03 | 0.03 | 0.00 | 93 | 1012.0 |
| 20260504033635 | 43 | 266 | 0.0 | 0.0 | 0.03 | 0.03 | 0.00 | 93 | 1012.0 |
| 20260504033331 | 43 | 266 | 0.0 | 0.0 | 0.03 | 0.03 | 0.00 | 93 | 1012.2 |
| 20260504033028 | 43 | 266 | 0.0 | 0.0 | 0.03 | 0.03 | 0.00 | 93 | 1012.2 |
| 20260504032725 | 43 | 266 | 0.0 | 0.0 | 0.03 | 0.03 | 0.00 | 93 | 1012.1 |
| 20260504032422 | 43 | 266 | 0.0 | 0.0 | 0.03 | 0.03 | 0.00 | 93 | 1012.0 |
| 20260504032118 | 43 | 266 | 0.0 | 0.0 | 0.03 | 0.03 | 0.00 | 93 | 1012.1 |
| 20260504031815 | 43 | 266 | 0.0 | 0.0 | 0.03 | 0.03 | 0.00 | 93 | 1012.1 |
| 20260504031511 | 43 | 266 | 0.0 | 0.0 | 0.03 | 0.03 | 0.00 | 93 | 1012.2 |
| 20260504031208 | 43 | 266 | 0.0 | 0.0 | 0.03 | 0.03 | 0.00 | 92 | 1012.1 |
| 20260504030905 | 43 | 266 | 0.0 | 0.0 | 0.03 | 0.03 | 0.00 | 92 | 1012.1 |
| 20260504030601 | 42 | 266 | 0.0 | 0.9 | 0.03 | 0.03 | 0.00 | 92 | 1012.2 |
| 20260504030258 | 43 | 266 | 0.9 | 0.9 | 0.03 | 0.03 | 0.00 | 93 | 1012.1 |
| 20260504025955 | 43 | 266 | 0.0 | 0.0 | 0.03 | 0.03 | 0.00 | 92 | 1012.2 |
| 20260504025651 | 43 | 266 | 0.0 | 0.0 | 0.03 | 0.03 | 0.00 | 92 | 1012.1 |
| 20260504025348 | 43 | 266 | 0.0 | 0.0 | 0.03 | 0.03 | 0.00 | 92 | 1012.1 |
| 20260504025045 | 43 | 266 | 0.0 | 0.0 | 0.03 | 0.03 | 0.00 | 92 | 1012.0 |
| 20260504024741 | 43 | 266 | 0.0 | 0.0 | 0.03 | 0.03 | 0.00 | 92 | 1012.2 |
| 20260504024438 | 44 | 266 | 0.0 | 0.0 | 0.03 | 0.03 | 0.00 | 92 | 1012.1 |
| 20260504024135 | 44 | 266 | 0.0 | 0.0 | 0.03 | 0.03 | 0.00 | 91 | 1012.1 |
| 20260504023831 | 44 | 266 | 0.0 | 0.0 | 0.03 | 0.03 | 0.00 | 91 | 1012.2 |
| 20260504023528 | 44 | 266 | 0.0 | 0.0 | 0.03 | 0.03 | 0.00 | 91 | 1012.2 |
| 20260504023225 | 44 | 266 | 0.0 | 0.0 | 0.03 | 0.03 | 0.00 | 91 | 1011.9 |
| 20260504022921 | 44 | 266 | 0.0 | 0.0 | 0.03 | 0.03 | 0.00 | 91 | 1012.2 |
| 20260504022618 | 44 | 266 | 0.0 | 0.0 | 0.03 | 0.03 | 0.00 | 91 | 1012.0 |
| 20260504022314 | 44 | 266 | 0.0 | 0.0 | 0.03 | 0.03 | 0.00 | 91 | 1012.2 |
| 20260504022011 | 43 | 266 | 0.0 | 1.7 | 0.03 | 0.03 | 0.00 | 91 | 1012.0 |
| 20260504021708 | 43 | 266 | 0.9 | 1.7 | 0.03 | 0.03 | 0.00 | 92 | 1012.1 |
| 20260504021404 | 44 | 266 | 0.0 | 0.0 | 0.03 | 0.03 | 0.00 | 92 | 1012.1 |
| 20260504021101 | 43 | 266 | 0.0 | 0.0 | 0.03 | 0.03 | 0.00 | 92 | 1012.1 |
| 20260504020758 | 44 | 266 | 0.0 | 0.0 | 0.03 | 0.03 | 0.00 | 91 | 1012.1 |
| 20260504020454 | 44 | 266 | 0.0 | 0.0 | 0.03 | 0.03 | 0.00 | 92 | 1012.2 |
| 20260504020151 | 44 | 266 | 0.0 | 0.0 | 0.03 | 0.03 | 0.00 | 91 | 1012.0 |
| 20260504015848 | 44 | 266 | 0.0 | 0.0 | 0.03 | 0.03 | 0.00 | 91 | 1012.1 |
| 20260504015544 | 44 | 266 | 0.0 | 0.0 | 0.03 | 0.03 | 0.00 | 91 | 1012.0 |
| 20260504015241 | 44 | 266 | 0.0 | 0.0 | 0.03 | 0.03 | 0.00 | 91 | 1012.1 |
| 20260504014938 | 44 | 266 | 0.0 | 0.0 | 0.03 | 0.03 | 0.00 | 91 | 1012.2 |
| 20260504014634 | 44 | 266 | 0.0 | 0.0 | 0.03 | 0.03 | 0.00 | 91 | 1012.3 |
| 20260504014331 | 45 | 266 | 0.0 | 0.0 | 0.03 | 0.03 | 0.00 | 91 | 1012.3 |
| 20260504014027 | 45 | 266 | 0.0 | 0.0 | 0.03 | 0.03 | 0.00 | 90 | 1012.1 |
| 20260504013724 | 45 | 266 | 0.0 | 0.0 | 0.03 | 0.03 | 0.00 | 90 | 1012.1 |
| 20260504013421 | 45 | 266 | 0.0 | 0.0 | 0.03 | 0.03 | 0.00 | 90 | 1012.2 |
| 20260504013117 | 45 | 266 | 0.0 | 0.0 | 0.03 | 0.03 | 0.00 | 90 | 1011.9 |
| 20260504012814 | 45 | 266 | 0.0 | 0.0 | 0.03 | 0.03 | 0.00 | 89 | 1012.2 |
| 20260504012511 | 45 | 266 | 0.0 | 0.0 | 0.03 | 0.03 | 0.00 | 90 | 1012.1 |
| 20260504012207 | 45 | 266 | 0.0 | 0.0 | 0.03 | 0.03 | 0.00 | 90 | 1012.3 |
| 20260504011904 | 45 | 266 | 0.0 | 0.0 | 0.03 | 0.03 | 0.00 | 89 | 1012.2 |
| 20260504011601 | 45 | 266 | 0.0 | 0.0 | 0.03 | 0.03 | 0.00 | 89 | 1012.0 |
| 20260504011257 | 45 | 266 | 0.0 | 0.0 | 0.03 | 0.03 | 0.00 | 89 | 1012.2 |
| 20260504010954 | 45 | 266 | 0.0 | 0.0 | 0.03 | 0.03 | 0.00 | 89 | 1012.1 |
| 20260504010651 | 46 | 266 | 0.0 | 0.0 | 0.03 | 0.03 | 0.00 | 89 | 1012.1 |
| 20260504010347 | 46 | 266 | 0.0 | 0.0 | 0.03 | 0.03 | 0.00 | 89 | 1012.1 |
| 20260504010044 | 46 | 266 | 0.0 | 0.0 | 0.03 | 0.03 | 0.00 | 89 | 1012.4 |
| 20260504005741 | 46 | 266 | 0.0 | 0.0 | 0.03 | 0.03 | 0.00 | 88 | 1012.3 |
| 20260504005437 | 46 | 266 | 0.0 | 0.0 | 0.03 | 0.03 | 0.00 | 88 | 1012.2 |
| 20260504005134 | 46 | 264 | 0.0 | 0.0 | 0.03 | 0.03 | 0.00 | 88 | 1012.1 |
| 20260504004831 | 46 | 262 | 0.0 | 0.0 | 0.03 | 0.03 | 0.00 | 87 | 1011.9 |
| 20260504004527 | 46 | 260 | 0.0 | 0.0 | 0.03 | 0.03 | 0.00 | 88 | 1011.9 |
| 20260504004224 | 46 | 258 | 0.0 | 0.0 | 0.03 | 0.03 | 0.00 | 87 | 1011.9 |
| 20260504003920 | 46 | 255 | 0.0 | 0.0 | 0.03 | 0.03 | 0.00 | 87 | 1012.3 |
| 20260504003617 | 46 | 253 | 0.0 | 0.0 | 0.03 | 0.03 | 0.00 | 87 | 1012.3 |
| 20260504003314 | 47 | 251 | 0.0 | 0.0 | 0.03 | 0.03 | 0.00 | 86 | 1012.1 |
| 20260504003011 | 47 | 246 | 0.0 | 0.0 | 0.03 | 0.03 | 0.00 | 86 | 1012.1 |
| 20260504002707 | 47 | 238 | 0.0 | 0.0 | 0.03 | 0.03 | 0.00 | 87 | 1011.9 |
| 20260504002404 | 47 | 227 | 0.0 | 0.0 | 0.03 | 0.03 | 0.00 | 87 | 1012.1 |
| 20260504002101 | 47 | 217 | 0.0 | 0.0 | 0.03 | 0.03 | 0.00 | 86 | 1012.2 |
| 20260504001757 | 47 | 212 | 0.0 | 1.7 | 0.03 | 0.03 | 0.00 | 86 | 1012.0 |
| 20260504001454 | 47 | 203 | 0.0 | 1.7 | 0.03 | 0.03 | 0.00 | 86 | 1012.1 |
| 20260504001150 | 47 | 188 | 0.0 | 0.9 | 0.03 | 0.03 | 0.00 | 86 | 1012.1 |
| 20260504000847 | 47 | 170 | 0.0 | 0.0 | 0.03 | 0.03 | 0.00 | 86 | 1012.1 |
| 20260504000544 | 47 | 155 | 0.0 | 0.0 | 0.03 | 0.03 | 0.00 | 86 | 1012.2 |
| 20260504000241 | 46 | 145 | 0.0 | 0.0 | 0.03 | 0.03 | 0.00 | 85 | 1012.2 |
| 20260503235937 | 47 | 145 | 0.0 | 0.0 | 0.03 | 0.03 | 0.00 | 85 | 1012.2 |
| 20260503235634 | 47 | 143 | 0.0 | 0.0 | 0.03 | 0.03 | 0.00 | 87 | 1011.9 |
| 20260503235330 | 47 | 123 | 0.0 | 0.0 | 0.03 | 0.03 | 0.00 | 86 | 1012.0 |
| 20260503235027 | 47 | 117 | 0.0 | 0.0 | 0.03 | 0.03 | 0.00 | 86 | 1012.1 |
| 20260503234724 | 47 | 115 | 0.0 | 0.0 | 0.03 | 0.03 | 0.00 | 86 | 1011.8 |
| 20260503234420 | 47 | 112 | 0.0 | 0.0 | 0.03 | 0.03 | 0.00 | 86 | 1012.2 |
| 20260503234117 | 47 | 105 | 0.0 | 0.0 | 0.03 | 0.03 | 0.00 | 86 | 1012.2 |
| 20260503233814 | 48 | 99 | 0.0 | 0.0 | 0.03 | 0.03 | 0.00 | 86 | 1011.9 |
| 20260503233510 | 48 | 95 | 0.0 | 0.0 | 0.03 | 0.03 | 0.00 | 85 | 1011.8 |
| 20260503233207 | 48 | 92 | 0.0 | 0.0 | 0.03 | 0.03 | 0.00 | 85 | 1012.0 |
| 20260503232904 | 48 | 91 | 0.0 | 0.0 | 0.03 | 0.03 | 0.00 | 86 | 1012.0 |
| 20260503232600 | 48 | 88 | 0.0 | 0.0 | 0.03 | 0.03 | 0.00 | 85 | 1011.9 |
| 20260503232257 | 48 | 86 | 0.0 | 0.0 | 0.03 | 0.03 | 0.00 | 84 | 1012.0 |
| 20260503231954 | 48 | 86 | 0.0 | 0.0 | 0.03 | 0.03 | 0.00 | 84 | 1012.1 |
| 20260503231650 | 48 | 86 | 0.0 | 0.0 | 0.03 | 0.03 | 0.00 | 84 | 1011.9 |
| 20260503231347 | 49 | 86 | 0.0 | 0.0 | 0.03 | 0.03 | 0.00 | 83 | 1011.9 |
| 20260503231044 | 49 | 86 | 0.0 | 0.0 | 0.03 | 0.03 | 0.00 | 83 | 1012.1 |
| 20260503230740 | 49 | 86 | 0.0 | 0.0 | 0.03 | 0.03 | 0.00 | 82 | 1012.1 |
| 20260503230437 | 49 | 86 | 0.0 | 0.0 | 0.03 | 0.03 | 0.00 | 83 | 1011.9 |
| 20260503230134 | 49 | 86 | 0.0 | 0.0 | 0.03 | 0.03 | 0.00 | 84 | 1012.3 |
| 20260503225830 | 49 | 86 | 0.0 | 0.0 | 0.03 | 0.03 | 0.00 | 83 | 1012.2 |
| 20260503225527 | 50 | 86 | 0.0 | 0.0 | 0.03 | 0.03 | 0.00 | 82 | 1012.1 |
| 20260503225224 | 50 | 86 | 0.0 | 0.0 | 0.03 | 0.03 | 0.00 | 81 | 1012.0 |
| 20260503224920 | 50 | 86 | 0.0 | 0.0 | 0.03 | 0.03 | 0.00 | 81 | 1012.1 |
| 20260503224617 | 51 | 87 | 0.0 | 1.7 | 0.03 | 0.03 | 0.00 | 81 | 1011.9 |
| 20260503224313 | 51 | 89 | 0.0 | 2.6 | 0.03 | 0.03 | 0.00 | 81 | 1012.1 |
| 20260503224010 | 51 | 89 | 1.7 | 2.6 | 0.03 | 0.03 | 0.00 | 81 | 1012.1 |
| 20260503223707 | 51 | 87 | 1.7 | 2.6 | 0.03 | 0.03 | 0.00 | 81 | 1012.2 |
| 20260503223403 | 51 | 88 | 0.0 | 1.7 | 0.03 | 0.03 | 0.00 | 81 | 1012.3 |
| 20260503223100 | 51 | 88 | 0.0 | 2.6 | 0.03 | 0.03 | 0.00 | 80 | 1012.2 |
| 20260503222757 | 51 | 88 | 0.9 | 2.6 | 0.03 | 0.03 | 0.00 | 80 | 1012.2 |
| 20260503222453 | 51 | 88 | 1.7 | 2.6 | 0.03 | 0.03 | 0.00 | 80 | 1012.0 |
| 20260503222150 | 52 | 87 | 0.9 | 2.6 | 0.03 | 0.03 | 0.00 | 80 | 1012.2 |
| 20260503221847 | 52 | 86 | 0.9 | 2.6 | 0.03 | 0.03 | 0.00 | 80 | 1012.2 |
| 20260503221543 | 52 | 86 | 0.9 | 2.6 | 0.03 | 0.03 | 0.00 | 79 | 1012.2 |
| 20260503221240 | 52 | 86 | 0.9 | 2.6 | 0.03 | 0.03 | 0.00 | 79 | 1012.1 |
| 20260503220937 | 52 | 86 | 0.9 | 2.6 | 0.03 | 0.03 | 0.00 | 79 | 1012.3 |
| 20260503220633 | 52 | 86 | 1.7 | 2.6 | 0.03 | 0.03 | 0.00 | 79 | 1012.4 |
| 20260503220330 | 52 | 86 | 0.0 | 1.7 | 0.03 | 0.03 | 0.00 | 79 | 1012.1 |
| 20260503220027 | 52 | 86 | 0.9 | 1.7 | 0.03 | 0.03 | 0.00 | 79 | 1012.2 |
| 20260503215723 | 52 | 86 | 0.0 | 0.9 | 0.03 | 0.03 | 0.00 | 78 | 1012.1 |
| 20260503215420 | 52 | 86 | 0.0 | 0.9 | 0.03 | 0.03 | 0.00 | 78 | 1012.0 |
| 20260503215116 | 52 | 86 | 0.0 | 1.7 | 0.03 | 0.03 | 0.00 | 78 | 1012.3 |
| 20260503214813 | 53 | 86 | 0.0 | 2.6 | 0.03 | 0.03 | 0.00 | 77 | 1012.3 |
| 20260503214510 | 53 | 86 | 0.9 | 1.7 | 0.03 | 0.03 | 0.00 | 77 | 1012.1 |
| 20260503214206 | 53 | 86 | 0.9 | 1.7 | 0.03 | 0.03 | 0.00 | 76 | 1012.2 |
| 20260503213903 | 53 | 86 | 0.9 | 1.7 | 0.03 | 0.03 | 0.00 | 77 | 1012.2 |
| 20260503213600 | 53 | 86 | 0.9 | 1.7 | 0.03 | 0.03 | 0.00 | 76 | 1012.1 |
| 20260503213256 | 53 | 86 | 0.0 | 1.7 | 0.03 | 0.03 | 0.00 | 75 | 1012.1 |
| 20260503212953 | 54 | 86 | 0.0 | 2.6 | 0.03 | 0.03 | 0.00 | 75 | 1012.2 |
| 20260503212650 | 54 | 86 | 0.9 | 2.6 | 0.03 | 0.03 | 0.00 | 76 | 1012.0 |
| 20260503212347 | 54 | 86 | 0.0 | 2.6 | 0.03 | 0.03 | 0.00 | 76 | 1012.1 |
| 20260503212043 | 54 | 86 | 0.9 | 2.6 | 0.03 | 0.03 | 0.00 | 76 | 1012.1 |
| 20260503211740 | 54 | 86 | 0.0 | 1.7 | 0.03 | 0.03 | 0.00 | 75 | 1012.3 |
| 20260503211436 | 54 | 86 | 0.0 | 1.7 | 0.03 | 0.03 | 0.00 | 75 | 1012.2 |
| 20260503211133 | 54 | 86 | 0.0 | 0.9 | 0.03 | 0.03 | 0.00 | 75 | 1012.2 |
| 20260503210830 | 54 | 86 | 0.0 | 1.7 | 0.03 | 0.03 | 0.00 | 75 | 1012.3 |
| 20260503210526 | 55 | 86 | 0.9 | 1.7 | 0.03 | 0.03 | 0.00 | 74 | 1012.2 |
| 20260503210223 | 55 | 86 | 0.0 | 0.9 | 0.03 | 0.03 | 0.00 | 74 | 1012.0 |
| 20260503205920 | 55 | 86 | 0.0 | 0.9 | 0.03 | 0.03 | 0.00 | 74 | 1012.2 |
| 20260503205616 | 55 | 86 | 0.9 | 0.9 | 0.03 | 0.03 | 0.00 | 74 | 1012.1 |
| 20260503205313 | 55 | 86 | 0.0 | 1.7 | 0.03 | 0.03 | 0.00 | 73 | 1012.2 |
| 20260503205010 | 55 | 86 | 0.9 | 0.9 | 0.03 | 0.03 | 0.00 | 73 | 1012.4 |
| 20260503204706 | 55 | 86 | 0.0 | 0.0 | 0.03 | 0.03 | 0.00 | 73 | 1012.2 |
| 20260503204403 | 55 | 86 | 0.0 | 0.0 | 0.03 | 0.03 | 0.00 | 73 | 1012.3 |
| 20260503204100 | 54 | 86 | 0.0 | 0.0 | 0.03 | 0.03 | 0.00 | 73 | 1012.3 |
| 20260503203756 | 55 | 86 | 0.0 | 0.0 | 0.03 | 0.03 | 0.00 | 72 | 1012.2 |
| 20260503203453 | 55 | 86 | 0.0 | 0.0 | 0.03 | 0.03 | 0.00 | 72 | 1012.2 |
| 20260503203150 | 55 | 86 | 0.0 | 0.0 | 0.03 | 0.03 | 0.00 | 72 | 1012.1 |
| 20260503202846 | 55 | 86 | 0.0 | 0.0 | 0.03 | 0.03 | 0.00 | 72 | 1012.3 |
| 20260503202543 | 55 | 86 | 0.0 | 0.0 | 0.03 | 0.03 | 0.00 | 72 | 1012.1 |
| 20260503202240 | 55 | 86 | 0.0 | 0.0 | 0.03 | 0.03 | 0.00 | 70 | 1012.1 |
| 20260503201936 | 56 | 86 | 0.0 | 0.0 | 0.03 | 0.03 | 0.00 | 71 | 1012.4 |
| 20260503201633 | 56 | 86 | 0.0 | 0.0 | 0.03 | 0.03 | 0.00 | 70 | 1012.2 |
| 20260503201330 | 56 | 86 | 0.0 | 0.0 | 0.03 | 0.03 | 0.00 | 70 | 1012.3 |
| 20260503201026 | 56 | 86 | 0.0 | 0.0 | 0.03 | 0.03 | 0.00 | 70 | 1012.2 |
| 20260503200723 | 56 | 86 | 0.0 | 0.0 | 0.03 | 0.03 | 0.00 | 70 | 1012.5 |
| 20260503200420 | 55 | 86 | 0.0 | 0.0 | 0.03 | 0.03 | 0.00 | 70 | 1012.2 |
| 20260503200116 | 55 | 86 | 0.0 | 0.0 | 0.03 | 0.03 | 0.00 | 69 | 1012.2 |
| 20260503195813 | 56 | 86 | 0.0 | 0.0 | 0.03 | 0.03 | 0.00 | 70 | 1012.2 |
| 20260503195509 | 56 | 86 | 0.0 | 0.0 | 0.03 | 0.03 | 0.00 | 70 | 1012.1 |
| 20260503195206 | 56 | 86 | 0.0 | 0.0 | 0.03 | 0.03 | 0.00 | 70 | 1012.5 |
| 20260503194903 | 56 | 86 | 0.0 | 0.0 | 0.03 | 0.03 | 0.00 | 69 | 1012.2 |
| 20260503194559 | 56 | 86 | 0.0 | 0.0 | 0.03 | 0.03 | 0.00 | 70 | 1012.1 |
| 20260503194256 | 57 | 86 | 0.0 | 0.0 | 0.03 | 0.03 | 0.00 | 69 | 1012.1 |
| 20260503193953 | 57 | 86 | 0.0 | 0.0 | 0.03 | 0.03 | 0.00 | 69 | 1012.1 |
| 20260503193649 | 57 | 86 | 0.0 | 0.0 | 0.03 | 0.03 | 0.00 | 70 | 1012.0 |
| 20260503193346 | 58 | 86 | 0.0 | 0.0 | 0.03 | 0.03 | 0.00 | 70 | 1012.1 |
| 20260503193042 | 57 | 86 | 0.0 | 0.0 | 0.03 | 0.03 | 0.00 | 67 | 1012.0 |
| 20260503192739 | 58 | 86 | 0.0 | 0.0 | 0.03 | 0.03 | 0.00 | 67 | 1012.0 |
| 20260503192436 | 58 | 86 | 0.0 | 0.0 | 0.03 | 0.03 | 0.00 | 67 | 1011.8 |
| 20260503192132 | 59 | 86 | 0.0 | 0.0 | 0.03 | 0.03 | 0.00 | 66 | 1011.8 |
| 20260503191829 | 59 | 86 | 0.0 | 0.0 | 0.03 | 0.03 | 0.00 | 66 | 1012.0 |
| 20260503191526 | 59 | 85 | 0.0 | 0.0 | 0.03 | 0.03 | 0.00 | 64 | 1012.0 |
| 20260503191222 | 59 | 83 | 0.0 | 0.0 | 0.03 | 0.03 | 0.00 | 65 | 1011.9 |
| 20260503190919 | 60 | 83 | 0.0 | 0.0 | 0.03 | 0.03 | 0.00 | 63 | 1012.2 |
| 20260503190616 | 60 | 82 | 0.0 | 0.0 | 0.03 | 0.03 | 0.00 | 62 | 1011.8 |
| 20260503190312 | 60 | 81 | 0.0 | 0.0 | 0.03 | 0.03 | 0.00 | 62 | 1011.8 |
| 20260503190009 | 60 | 81 | 0.0 | 0.0 | 0.03 | 0.03 | 0.00 | 63 | 1011.8 |
| 20260503185706 | 60 | 80 | 0.0 | 0.0 | 0.03 | 0.03 | 0.00 | 62 | 1011.7 |
| 20260503185402 | 61 | 80 | 0.0 | 0.0 | 0.03 | 0.03 | 0.00 | 62 | 1011.7 |
| 20260503185059 | 61 | 79 | 0.0 | 0.0 | 0.03 | 0.03 | 0.00 | 61 | 1011.8 |
| 20260503184756 | 61 | 78 | 0.0 | 0.0 | 0.03 | 0.03 | 0.00 | 61 | 1011.7 |